| time (UTC) | temp F | wind direction | speed knots | gust knots | rain 1hr in | rain 24hr in | rain mn in | humidity % | barometer mb |
| 20260903090037 | 76 | 323 | 1.7 | 4.3 | 0.00 | 0.00 | 0.00 | 87 | 1013.1 |
| 20260903043038 | 82 | 242 | 6.1 | 10.4 | 0.00 | 0.00 | 0.00 | 68 | 1013.8 |
| 20260903041538 | 83 | 214 | 4.3 | 13.0 | 0.00 | 0.00 | 0.00 | 67 | 1013.9 |
| 20260903034533 | 84 | 245 | 3.5 | 8.7 | 0.00 | 0.00 | 0.00 | 65 | 1013.7 |
| 20260903033035 | 84 | 238 | 3.5 | 10.4 | 0.00 | 0.00 | 0.00 | 63 | 1013.6 |
| 20260903031534 | 85 | 262 | 4.3 | 12.2 | 0.00 | 0.00 | 0.00 | 62 | 1013.6 |
| 20260903023034 | 86 | 248 | 6.1 | 13.9 | 0.00 | 0.00 | 0.00 | 58 | 1013.5 |
| 20260903021536 | 87 | 274 | 7.8 | 16.5 | 0.00 | 0.00 | 0.00 | 57 | 1013.1 |
| 20260902230036 | 94 | 267 | 3.5 | 8.7 | 0.00 | 0.00 | 0.00 | 47 | 1011.6 |
| 20260902221543 | 99 | 236 | 4.3 | 11.3 | 0.00 | 0.00 | 0.00 | 40 | 1011.3 |
| 20260902220053 | 99 | 227 | 4.3 | 11.3 | 0.00 | 0.00 | 0.00 | 40 | 1011.4 |
| 20260902214533 | 100 | 248 | 7.0 | 12.2 | 0.00 | 0.00 | 0.00 | 39 | 1011.6 |
| 20260902211535 | 101 | 100 | 2.6 | 10.4 | 0.00 | 0.00 | 0.00 | 39 | 1011.9 |
| 20260902210037 | 99 | 219 | 5.2 | 11.3 | 0.00 | 0.00 | 0.00 | 40 | 1012.0 |
| 20260902203039 | 100 | 156 | 1.7 | 12.2 | 0.00 | 0.00 | 0.00 | 39 | 1012.5 |
| 20260902201544 | 98 | 218 | 7.0 | 13.0 | 0.00 | 0.00 | 0.00 | 41 | 1012.6 |
| 20260902200037 | 98 | 150 | 5.2 | 12.2 | 0.00 | 0.00 | 0.00 | 41 | 1012.8 |
| 20260902194536 | 99 | 159 | 3.5 | 12.2 | 0.00 | 0.00 | 0.00 | 41 | 1013.0 |
| 20260902193043 | 98 | 105 | 2.6 | 13.9 | 0.00 | 0.00 | 0.00 | 42 | 1013.3 |
| 20260902191536 | 97 | 138 | 5.2 | 10.4 | 0.00 | 0.00 | 0.00 | 44 | 1013.5 |
| 20260902183039 | 97 | 133 | 4.3 | 12.2 | 0.00 | 0.00 | 0.00 | 44 | 1014.2 |
| 20260902181536 | 96 | 211 | 3.5 | 7.8 | 0.00 | 0.00 | 0.00 | 45 | 1014.6 |
| 20260902180032 | 96 | 258 | 3.5 | 10.4 | 0.00 | 0.00 | 0.00 | 45 | 1015.2 |
| 20260902173035 | 94 | 173 | 2.6 | 10.4 | 0.00 | 0.00 | 0.00 | 50 | 1015.6 |
| 20260902171547 | 93 | 216 | 3.5 | 9.6 | 0.00 | 0.00 | 0.00 | 54 | 1015.9 |
| 20260902170034 | 93 | 279 | 4.3 | 7.8 | 0.00 | 0.00 | 0.00 | 52 | 1016.1 |
| 20260902133034 | 81 | 238 | 2.6 | 7.0 | 0.00 | 0.00 | 0.00 | 71 | 1016.4 |
| 20260902131541 | 80 | 300 | 3.5 | 7.0 | 0.00 | 0.00 | 0.00 | 72 | 1016.3 |
| 20260902130035 | 79 | 283 | 1.7 | 5.2 | 0.00 | 0.00 | 0.00 | 76 | 1016.3 |
| 20260902123042 | 77 | 244 | 0.9 | 3.5 | 0.00 | 0.00 | 0.00 | 77 | 1016.0 |
| 20260902121534 | 77 | 0 | 0.0 | 2.6 | 0.00 | 0.00 | 0.00 | 76 | 1015.9 |
| 20260902120032 | 78 | 236 | 0.0 | 2.6 | 0.00 | 0.00 | 0.00 | 76 | 1015.8 |
| 20260902114540 | 78 | 0 | 0.9 | 3.5 | 0.00 | 0.00 | 0.00 | 76 | 1015.9 |
| 20260902113037 | 78 | 234 | 0.0 | 1.7 | 0.00 | 0.00 | 0.00 | 75 | 1016.0 |
| 20260902111535 | 78 | 0 | 0.0 | 0.0 | 0.00 | 0.00 | 0.00 | 75 | 1016.0 |
| 20260902110042 | 79 | 0 | 0.0 | 0.0 | 0.00 | 0.00 | 0.00 | 74 | 1015.9 |
| 20260902104532 | 79 | 0 | 0.0 | 0.0 | 0.00 | 0.00 | 0.00 | 74 | 1015.8 |